Pagina principale
METAR-TAF:

METAR-TAF

Aeroporti :

Alpnach, Svizzera

latitudine: 46-56-19N, longitudine: 8-17-03E, altezza: 440 m

Osservazione

Il bollettino è stato emesso 18 minuti fa, alle 14:20 UTC
Vento 5 kt da est, variando fra nord-est e est/sud-est
Temperature 18°C
Umidità 68%
Pressione 1026 hPa
Visibilità 10 km o più
Cielo coperto ad un'altezza di 2900 ft

METAR: LSMA 211420Z 08005KT 050V120 9999 OVC029 18/12 Q1026 RMK BLU

Ora: 16:38 (14:38 UTC)


TAF: mancante

Osservazioni e previsioni meteorologiche di più di 4000 aeroporti (messaggi METAR e TAF).

Le stazioni disponibili sono rappresentate dai dischi gialli e rossi sulla carta.

Puntare il mouse per vedere il nome della stazione.

Clicca sopra per visualizzare le osservazioni e previsioni meteorologiche.

Per cambiare la mappa : fare clic sui pulsanti verdi con una croce nera per ingrandire, il pulsante verde con un trattino per diminuire, o sulla freccia verde per le mappe adiacenti.


METAR-TAF: